EHI
0 0 0 0 0 0 0 1 4 5 3 1 0 0 0 1 1 1 0 0 0 0 0 1 2 2 1 1 2 5 7 8 7 6 5 4 3 2 1 0 1 2 3
0 0 0 0 0 0 0 1 3 3 2 1 0 0 0 0 0 0 0 0 0 0 0 1 2 2 1 1 2 4 7 8 7 5 4 3 2 2 1 1 1 2 2
0 0 0 1 1 1 0 0 1 2 1 1 1 0 0 0 0 0 0 0 1 0 0 1 2 2 1 2 3 5 7 7 5 2 1 1 2 3 3 2 3 3 2
0 0 1 2 2 1 0 0 0 0 1 1 1 0 0 0 0 0 0 0 0 0 0 1 2 2 2 3 5 6 5 4 2 1 0 0 2 4 4 3 3 4 4
0 0 1 2 2 1 0 0 0 0 0 1 1 0 0 0 0 0 0 0 0 0 1 1 1 1 2 4 6 6 3 1 1 0 0 0 1 4 4 4 3 3 4
0 0 0 1 1 0 0 0 0 0 0 0 0 0 0 0 0 0 0 0 0 0 0 0 0 0 2 5 5 3 1 0 0 0 0 0 1 3 5 5 5 3 1
0 0 0 0 0 0 0 0 0 0 0 0 0 0 0 0 0 0 0 0 0 0 0 0 1 1 2 3 3 1 0 0 0 0 0 0 0 2 4 6 5 2 0
1 1 1 2 1 0 0 0 0 0 0 0 0 0 0 0 0 0 0 0 0 0 0 0 1 1 1 1 1 0 0 0 0 0 0 0 0 2 3 3 2 1 0
2 2 3 3 2 0 0 0 0 0 0 1 1 1 0 0 0 0 0 0 0 0 0 0 1 1 1 0 0 0 0 0 0 0 0 0 0 1 1 1 0 0 0
3 3 3 2 1 0 0 0 0 0 0 1 1 1 0 0 0 0 0 0 0 0 0 1 1 2 1 0 0 0 0 0 0 0 0 0 0 0 0 0 0 0 0
3 3 1 1 0 0 0 0 0 0 0 0 0 0 0 0 0 0 0 0 0 0 0 1 2 2 1 0 0 0 0 0 0 0 0 1 1 0 0 0 0 0 0
3 2 1 0 0 0 0 0 0 0 0 0 0 0 0 0 0 0 0 0 0 0 0 1 1 1 0 0 0 0 0 0 0 0 0 1 1 0 0 0 0 0 1
3 2 1 0 0 0 0 0 0 0 0 0 0 0 0 0 0 0 0 0 0 0 0 0 0 0 0 0 0 0 0 0 0 0 0 1 1 0 0 0 0 1 2
2 2 1 0 0 0 0 0 0 0 0 0 0 0 0 0 0 0 0 0 0 0 0 0 0 0 0 0 0 0 0 0 0 0 0 0 0 0 0 0 0 1 3
1 1 1 0 0 0 0 0 0 0 0 0 0 0 0 0 0 0 0 0 0 0 0 0 0 0 0 0 0 0 0 0 0 0 0 0 0 0 0 0 0 1 3
0 0 0 0 0 0 0 0 0 0 0 0 0 0 0 0 0 0 0 0 0 0 0 0 0 0 0 0 0 0 0 0 0 0 0 0 0 0 0 0 1 2 2
0 0 0 0 0 0 0 0 0 0 0 0 0 0 0 0 0 0 0 0 0 0 0 0 0 0 0 0 0 0 0 0 0 0 0 0 0 0 0 0 1 1 1
0 0 0 0 0 0 0 0 0 0 0 0 0 0 0 0 0 0 0 0 0 0 0 0 0 0 0 0 0 0 0 0 0 0 0 0 0 0 0 0 0 0 0
0 0 0 0 0 0 0 0 0 0 0 0 0 0 0 0 0 0 0 0 0 0 0 0 0 0 0 0 0 0 0 0 0 0 0 0 0 0 0 0 0 0 0
0 0 0 0 0 0 0 0 0 0 0 0 0 0 0 0 0 0 0 0 0 0 0 0 0 0 0 0 0 0 0 0 0 0 0 0 0 0 0 0 0 0 0
0 0 0 0 0 0 0 0 0 0 0 0 0 0 0 0 0 0 0 0 0 0 0 0 0 0 0 0 0 0 0 0 0 0 0 0 0 0 0 0 0 0 0
0 0 0 0 0 0 0 0 0 0 0 0 0 0 0 0 0 0 0 0 0 0 0 0 0 0 0 0 0 0 0 0 0 0 0 0 0 0 0 0 0 0 0
0 0 0 0 0 0 0 0 0 0 0 0 0 0 0 0 0 0 0 0 0 0 0 0 0 0 0 0 0 0 0 0 0 0 0 0 0 0 0 0 0 0 0
0 0 0 0 0 0 0 0 0 0 0 0 0 0 0 0 0 0 0 0 0 0 0 0 0 0 0 0 0 0 0 0 0 0 0 0 0 0 0 0 0 0 0
0 0 0 0 0 0 0 0 0 0 0 0 0 0 0 0 0 0 0 0 0 0 0 0 0 0 0 0 0 0 0 0 0 0 0 0 0 0 0 0 0 0 0
0 0 0 0 0 0 0 0 0 0 0 0 0 0 0 0 0 0 0 0 0 0 0 0 0 0 0 0 0 0 0 0 0 0 0 0 0 0 0 0 0 0 0
Wind_Speed
0 0 5 7 7 8 8 8 9 9 9 9 10 11 11 11 11 11 11 11 10 10 10 10 11 11 10 10 10 10 10 10 10 9 9 8 9 9 9 9 8 5 8
3 2 6 7 7 7 8 8 8 8 9 9 10 10 11 10 10 10 10 10 10 10 10 10 10 10 10 9 9 9 9 9 9 9 9 8 8 8 8 8 8 5 8
4 2 4 7 7 7 8 8 8 9 9 9 10 10 10 10 10 10 9 10 10 10 10 10 10 10 9 9 9 9 9 8 8 8 8 4 5 8 8 8 8 8 8
5 3 4 7 7 7 8 8 8 9 9 10 10 10 10 10 10 9 9 9 10 10 9 9 9 9 9 8 9 9 9 8 8 8 4 3 4 8 8 8 8 8 8
4 3 4 7 7 7 7 8 8 8 9 9 10 10 9 9 9 9 9 9 9 8 8 8 8 8 8 8 8 9 9 9 10 8 4 4 3 7 9 8 8 8 8
4 3 4 7 6 6 7 7 7 8 8 9 10 9 9 9 9 9 9 9 8 8 8 7 7 7 8 8 9 10 10 10 8 5 4 3 3 8 9 9 8 8 8
4 2 3 6 6 6 6 6 7 7 8 9 9 9 9 9 9 8 9 8 8 8 8 7 7 7 8 8 10 10 10 11 6 4 4 3 5 10 10 9 9 8 8
4 3 3 6 6 5 6 6 7 7 8 8 8 8 8 8 8 8 8 7 7 7 6 7 7 7 8 8 9 10 10 9 7 6 4 3 8 11 10 10 9 8 8
4 3 2 2 3 5 6 6 7 7 7 7 7 7 7 8 8 7 7 7 6 6 6 6 6 7 8 8 9 10 11 11 5 3 5 4 9 11 11 11 10 9 9
3 3 2 1 1 1 2 5 6 6 6 6 6 7 7 7 7 6 5 6 6 6 6 6 6 7 7 9 10 10 12 9 5 4 3 5 10 10 10 10 10 9 9
2 1 2 1 1 1 1 3 4 4 4 5 4 6 5 3 2 3 4 5 5 5 5 6 6 8 8 9 10 11 9 3 4 3 2 8 10 10 10 10 9 9 9
2 1 2 2 2 1 2 2 1 2 2 2 2 2 2 1 1 2 3 4 5 5 5 5 6 7 6 4 7 9 3 4 3 2 3 9 10 10 10 10 9 9 9
2 2 3 3 2 2 2 2 1 1 1 2 2 2 2 2 1 2 1 2 3 4 3 4 4 3 3 3 4 3 3 3 2 2 4 9 9 10 10 10 10 9 9
2 2 3 3 2 2 2 2 2 1 1 1 1 2 2 1 1 1 1 1 1 2 2 3 3 4 5 5 5 4 4 2 2 2 3 8 8 9 9 9 10 10 10
3 3 3 3 3 3 2 1 2 1 2 2 1 2 3 2 1 1 1 1 1 2 2 3 3 4 5 5 4 4 4 4 3 3 2 8 9 9 9 9 9 10 9
3 3 3 4 3 4 3 2 2 2 1 2 2 2 2 2 2 2 2 2 2 2 3 3 4 4 3 4 4 4 4 3 3 3 3 4 8 9 9 9 9 9 9
3 3 4 4 4 4 4 3 2 2 2 2 2 2 2 3 3 2 3 3 2 3 4 4 4 3 4 4 4 3 3 3 3 3 3 3 3 6 8 8 9 9 9
4 4 3 4 4 4 3 3 2 2 2 2 2 2 3 3 3 3 3 2 3 3 3 3 3 4 4 3 3 2 2 2 3 3 3 3 3 3 5 9 9 8 8
5 4 3 4 4 4 4 3 3 3 2 2 2 2 2 3 4 4 3 2 3 3 3 3 3 3 3 3 3 3 2 2 2 3 3 3 3 3 3 5 8 8 8
4 4 4 3 3 4 3 3 3 3 2 2 2 2 3 3 4 4 3 3 3 3 3 3 3 3 3 3 4 4 3 3 3 3 2 2 2 2 2 3 3 4 7
4 4 3 3 3 3 2 2 2 1 1 1 1 2 3 3 3 4 3 3 3 3 3 3 3 4 2 2 4 4 4 4 4 3 2 2 2 2 2 2 2 2 2
4 4 4 3 3 3 2 2 1 1 1 0 1 2 2 3 3 4 3 3 3 3 3 3 3 2 1 1 3 3 2 4 4 4 3 2 2 2 2 3 3 2 2
5 5 5 4 4 3 3 2 2 2 2 2 2 1 1 2 3 3 4 3 3 3 3 2 2 3 2 1 1 3 3 1 1 3 3 3 2 2 2 2 3 2 2
6 4 5 4 4 4 4 4 3 2 2 1 1 0 1 2 2 2 3 3 3 3 3 2 2 2 3 1 1 1 2 3 3 1 3 3 3 3 2 2 3 3 2
5 5 5 4 4 4 4 4 4 2 1 1 1 2 1 1 1 2 3 3 4 3 2 2 2 2 2 2 1 1 2 2 2 3 1 2 3 3 2 2 2 2 2
5 4 5 5 4 4 4 4 4 4 3 2 1 1 1 1 1 2 3 3 3 3 3 2 2 3 2 2 2 2 2 2 2 3 2 1 1 2 2 2 2 1 1
Wind_Direction
339 169 100 91 86 85 82 78 78 79 80 82 85 87 86 85 84 84 81 79 84 85 84 84 84 86 89 89 89 88 87 85 87 88 86 85 86 86 88 87 89 92 105
157 143 109 99 91 87 84 80 78 82 83 84 87 90 89 87 85 85 85 83 85 88 88 87 86 86 86 85 85 86 86 83 81 82 82 80 84 88 90 92 93 97 106
131 123 113 102 96 93 90 85 82 85 87 87 91 92 92 89 87 89 89 86 85 86 88 86 86 86 85 83 82 81 82 78 79 84 80 75 81 87 90 91 93 94 100
131 123 114 105 98 94 91 90 89 88 90 92 94 93 91 89 87 89 91 90 87 86 87 86 84 83 82 80 78 77 77 75 80 84 68 63 76 90 93 93 93 94 94
124 119 121 110 100 94 94 93 95 93 93 96 97 95 93 91 91 90 90 89 88 90 90 89 86 83 81 79 78 78 78 76 79 75 64 60 68 92 96 95 93 96 97
128 128 124 112 108 102 100 101 101 99 97 98 98 96 96 94 93 92 92 91 91 95 95 94 89 85 83 81 79 81 80 77 74 65 62 60 69 90 94 94 91 91 94
135 138 130 118 112 108 110 113 108 105 103 101 100 99 99 97 94 93 91 91 93 94 94 93 93 85 80 80 77 77 79 81 76 65 59 61 80 89 88 87 86 88 89
142 139 127 124 117 108 113 115 111 110 112 108 103 100 101 101 100 96 95 92 93 96 97 94 92 86 80 78 77 77 79 82 77 75 63 65 88 87 84 83 84 84 85
137 136 130 126 117 114 116 119 115 113 117 116 110 106 104 102 102 100 98 100 100 100 97 93 91 87 83 81 80 81 83 80 67 64 74 69 87 86 85 84 85 85 84
129 139 144 155 128 108 107 121 122 119 121 119 115 113 106 100 100 100 104 106 109 105 99 95 92 88 84 84 83 84 84 78 61 55 54 80 85 86 86 86 85 86 85
122 132 138 151 153 147 133 123 119 114 109 109 112 113 101 75 76 82 105 112 109 103 100 93 87 87 82 81 86 87 80 68 59 52 52 84 86 85 85 86 87 86 83
156 148 128 135 142 146 127 90 76 83 80 78 90 97 90 79 80 91 88 102 95 84 83 85 84 82 71 64 80 82 72 74 62 51 72 82 85 85 85 88 88 85 83
168 135 123 132 121 109 93 96 74 74 80 71 79 98 100 84 67 62 47 45 47 57 51 60 64 68 75 77 76 75 77 71 56 48 70 82 86 87 86 89 88 86 83
120 109 127 130 110 101 100 100 105 99 86 76 83 92 95 94 89 85 60 34 43 55 70 66 72 76 78 82 88 87 79 75 62 49 67 81 88 90 88 86 86 83 81
122 110 113 115 109 99 90 84 95 94 93 90 79 92 100 104 104 89 81 67 63 76 91 89 85 83 83 84 86 88 83 79 68 55 52 74 82 87 87 84 82 80 80
128 116 117 107 107 100 93 86 87 89 91 85 78 77 91 102 102 95 87 77 73 80 83 87 88 87 85 87 81 80 78 78 73 68 53 64 77 82 84 84 82 78 77
148 127 121 119 104 99 99 92 81 74 77 73 67 76 86 89 97 97 90 83 83 90 89 82 80 80 86 84 80 78 78 76 82 76 64 53 55 70 79 81 79 75 73
142 134 130 122 113 103 99 95 84 72 71 65 63 72 83 88 91 88 86 81 83 83 84 87 81 80 78 83 80 71 75 77 84 85 74 62 50 50 64 74 73 72 70
150 144 136 123 119 109 101 90 81 76 64 54 60 67 79 89 95 99 95 87 87 82 79 95 83 91 92 89 91 74 60 64 73 89 80 76 70 61 51 67 69 70 69
150 145 138 127 123 110 93 78 64 55 48 44 57 67 81 85 92 101 105 95 90 87 77 83 89 77 89 94 88 68 48 50 58 71 81 82 80 68 56 57 52 57 66
140 141 143 131 130 116 100 96 94 78 38 38 45 75 86 90 90 96 103 98 95 97 102 105 99 82 67 80 78 52 29 36 46 44 48 63 66 57 66 72 64 47 44
153 150 144 145 142 135 127 132 142 140 109 55 29 56 82 94 96 109 109 109 107 102 95 95 100 94 73 82 104 94 45 14 14 27 29 45 51 51 67 90 89 74 56
159 166 162 163 154 145 127 102 79 60 46 34 27 20 24 90 104 109 111 116 118 116 124 127 129 126 123 43 96 130 131 166 344 360 11 24 35 48 56 77 86 85 76
171 167 157 158 151 145 132 127 127 126 132 190 199 76 27 72 99 105 110 115 119 121 132 143 134 131 124 113 47 69 129 143 134 50 352 5 25 40 42 65 71 72 67
167 164 158 152 150 151 144 139 134 134 156 153 110 84 58 40 78 107 109 110 113 123 134 121 110 108 117 130 132 115 89 79 100 126 121 344 8 8 23 41 56 61 54
162 158 156 154 156 157 153 149 153 159 159 137 120 117 74 40 45 87 113 117 121 129 132 123 112 108 105 108 109 116 134 136 144 133 140 142 15 343 11 22 38 48 47